Weather History for MROC - November, 2014

Change the Weather History Date:

Saturday, November 1, 2014

  Actual Average Record
Temperature  
Mean Temperature 73 °F -  
Max Temperature 82 °F 78 °F 86 °F (1997)
Min Temperature 64 °F 64 °F 61 °F (2013)
Cooling Degree Days 8    
Growing Degree Days 23 (Base 50)    
Moisture  
Dew Point 66 °F    
Average Humidity 88    
Maximum Humidity 100    
Minimum Humidity 49    
Precipitation  
Precipitation 1.50 in 0.17 in - ()
Sea Level Pressure  
Sea Level Pressure 29.99 in    
Wind  
Wind Speed 5 mph ()    
Max Wind Speed 12 mph    
Max Gust Speed -    
Visibility 4.2 miles    
Events Fog , Rain    
Averages and records for this station are not official NWS values.
T = Trace of Precipitation, MM = Missing Value Source: Averaged Metar Reports

Daily Weather History Graph

Daily Weather History Graph

Search for Another Location

Airport or City:

Trip Planner

Search our weather history database for the weather conditions in past years. The results will help you decide how hot, cold, wet, or windy it might be!

Date:

Astronomy

Nov. 01, 2014 Rise Set
Actual Time 5:27 AM CST 5:13 PM CST
Civil Twilight 5:05 AM CST 5:34 PM CST
Nautical Twilight 4:40 AM CST 6:00 PM CST
Astronomical Twilight 4:15 AM CST 6:24 PM CST
Moon 1:07 PM CST (11/1) 12:27 AM CST (11/1)
Length of Visible Light 12h 29m
Length of Day
11h 46m
Waxing Gibbous, 68% of the Moon is Illuminated
Nov 1
Waxing Gibbous
Nov 6
Full
Nov 14
Last Quarter
Nov 22
New
Nov 29
First Quarter

Hourly Weather History & Observations

Time (CST) Temp. Heat Index Dew Point Humidity Pressure Visibility Wind Dir Wind Speed Gust Speed Precip Events Conditions
12:00 AM 67 °F - 65 °F 92% 29.86 in 3 mi SW 2.3 mph - -  
12:00 AM 68.0 °F - 66.2 °F 94% 30.00 in 3.1 mi SW 2.3 mph - N/A   Mostly Cloudy
12:25 AM 68.0 °F - 66.2 °F 94% 30.01 in 0.9 mi NW 2.3 mph - N/A   Mostly Cloudy
1:00 AM 68.0 °F - 66.2 °F 94% 30.00 in 0.3 mi South 2.3 mph - N/A Fog Fog
2:00 AM 66.2 °F - 66.2 °F 100% 29.99 in 0.7 mi East 2.3 mph - N/A   Mostly Cloudy
3:00 AM 66 °F - 65 °F 96% 29.86 in 3 mi ENE 2.3 mph - -   Overcast
3:00 AM 66.2 °F - 64.4 °F 94% 29.98 in 3.1 mi ENE 2.3 mph - N/A   Mostly Cloudy
4:00 AM 66.2 °F - 64.4 °F 94% 30.00 in 3.1 mi WSW 2.3 mph - N/A   Mostly Cloudy
5:00 AM 66.2 °F - 64.4 °F 94% 30.00 in 6.2 mi East 2.3 mph - N/A Fog Patches of Fog
6:00 AM 64.4 °F - 62.6 °F 94% 30.02 in 6.2 mi ENE 4.6 mph - N/A Fog Patches of Fog
7:00 AM 71.6 °F - 62.6 °F 73% 30.07 in - ENE 5.8 mph - N/A   Clear
8:00 AM 75.2 °F - 62.6 °F 65% 30.06 in 6.2 mi NE 8.1 mph - N/A   Mostly Cloudy
9:00 AM 78 °F - 62 °F 49% 29.91 in 12 mi ESE 9.2 mph - -   Scattered Clouds
9:00 AM 78.8 °F - 62.6 °F 57% 30.05 in 6.2 mi ESE 9.2 mph - N/A   Mostly Cloudy
11:00 AM 82.4 °F 83.9 °F 64.4 °F 54% 30.03 in 6.2 mi SSE 6.9 mph - N/A   Scattered Clouds
12:00 PM 76 °F - 67 °F 66% 29.87 in 12 mi SW 6.9 mph - -   Partly Cloudy
12:00 PM 77.0 °F - 66.2 °F 69% 30.00 in 6.2 mi SW 6.9 mph - N/A   Mostly Cloudy
12:40 PM 73.4 °F - 68.0 °F 83% 30.00 in 6.2 mi WSW 11.5 mph - N/A   Overcast
12:45 PM 73.4 °F - 68.0 °F 83% - 3.1 mi West 11.5 mph - N/A Rain Rain
1:00 PM 69.8 °F - 68.0 °F 94% 30.00 in 0.7 mi West 9.2 mph - N/A Rain Heavy Rain
1:09 PM 69.8 °F - 69.8 °F 100% 30.00 in 6.2 mi West 6.9 mph - N/A Rain Rain
2:00 PM 69.8 °F - 69.8 °F 100% - 2.5 mi WSW 6.9 mph - N/A Rain Light Rain
3:00 PM 70 °F - 69 °F 97% 29.86 in 1 mi SW 6.9 mph - - Rain Rain
3:00 PM 69.8 °F - 69.8 °F 100% 2.99 in 0.7 mi SW 6.9 mph - N/A Rain Rain
4:00 PM 68.0 °F - 68.0 °F 100% 29.99 in 0.7 mi SW 11.5 mph - N/A Rain Light Rain
4:15 PM 68.0 °F - 68.0 °F 100% 29.99 in 0.3 mi SW 8.1 mph - N/A Fog , Rain Light Rain
4:30 PM 68.0 °F - 68.0 °F 100% - 0.7 mi SSW 5.8 mph - N/A Rain Light Rain
5:00 PM 68.0 °F - 68.0 °F 100% - 0.7 mi SSW 4.6 mph - N/A Rain Light Rain
6:00 PM 69 °F - 68 °F 94% 29.93 in 1 mi West 11.5 mph - - Rain Rain
6:00 PM 68.0 °F - 68.0 °F 100% - 0.7 mi West 11.5 mph - N/A Rain Light Rain
7:00 PM 68.0 °F - 68.0 °F 100% 30.05 in 6.2 mi North 3.5 mph - N/A Fog Patches of Fog
8:00 PM 68.0 °F - 68.0 °F 100% 30.06 in 6.2 mi East 3.5 mph - N/A Fog Light Drizzle
9:00 PM 68 °F - 65 °F 87% 29.94 in 12 mi ENE 5.8 mph - -   Overcast
9:00 PM 68.0 °F - 64.4 °F 88% 30.05 in 6.2 mi ENE 5.8 mph - N/A   Mostly Cloudy
10:00 PM 68.0 °F - 64.4 °F 88% 30.02 in 6.2 mi East 6.9 mph - N/A Rain Light Rain
11:00 PM 68.0 °F - 64.4 °F 88% 30.01 in 6.2 mi East 4.6 mph - N/A Rain Light Rain